Total_Precipitation_Accumulation
2.85 3.21 3.32 3.60 3.28 3.19 3.33 3.27 3.05 2.90 2.61 2.41 2.31 2.25 2.32 2.30 2.33 2.59 2.75 2.69 2.98 3.58 4.24 4.60 4.66 4.63 4.57 4.39 4.18 3.97 3.64 3.43 3.23 2.91 2.55 2.29 2.20 2.12 2.11 2.17 2.14 2.00 1.99
3.20 3.56 3.74 3.94 3.77 3.75 3.96 3.98 3.75 3.53 3.23 3.14 2.90 2.83 2.73 2.72 2.94 2.94 2.94 2.86 2.81 3.05 3.77 4.34 4.71 4.95 4.93 4.64 4.28 4.06 3.88 3.65 3.47 3.18 2.88 2.66 2.53 2.38 2.24 2.23 2.22 2.10 1.98
3.75 3.89 4.27 4.30 4.12 4.10 4.17 4.19 4.43 4.34 3.82 3.54 3.44 3.36 3.23 3.08 3.30 3.44 3.51 3.31 3.02 3.04 3.33 3.90 4.27 4.51 4.69 4.79 4.60 4.37 4.25 3.87 3.55 3.32 3.13 2.96 2.86 2.73 2.54 2.37 2.36 2.34 2.16
4.09 4.15 4.23 4.34 4.29 4.28 4.66 4.88 4.82 4.74 4.49 4.11 3.99 3.74 3.51 3.48 3.27 3.28 3.40 3.31 3.30 3.00 2.94 3.12 3.49 3.68 4.06 4.56 4.83 4.90 4.70 4.34 3.94 3.66 3.52 3.35 3.15 2.91 2.71 2.53 2.46 2.46 2.32
4.58 4.67 4.68 4.87 4.71 4.78 4.85 4.73 5.19 5.14 5.03 4.58 4.06 3.86 3.51 3.46 3.37 3.04 3.05 3.11 3.14 3.03 2.98 2.91 3.19 3.40 3.71 4.24 4.75 5.10 5.09 4.84 4.48 4.16 3.97 3.82 3.58 3.23 2.90 2.69 2.64 2.58 2.53
5.44 5.47 5.43 5.48 5.32 5.19 5.17 5.19 5.33 5.06 4.88 4.66 4.06 3.75 3.39 3.02 2.96 2.95 2.71 2.89 2.84 2.64 2.83 3.02 3.14 2.99 3.41 3.79 4.28 4.75 4.93 5.06 4.93 4.51 4.21 4.15 3.97 3.62 3.29 3.09 2.97 2.84 2.78
5.99 5.88 5.71 5.88 5.69 5.42 5.21 5.19 5.19 5.08 4.70 4.68 4.70 4.21 3.46 2.97 2.75 2.56 2.61 2.73 2.63 2.60 2.93 3.04 2.97 2.87 2.84 3.19 3.52 3.92 4.36 4.78 5.17 5.16 4.92 4.64 4.20 3.76 3.50 3.40 3.32 3.14 2.97
6.32 6.13 6.18 5.98 5.78 5.67 5.39 5.19 5.17 5.08 4.69 4.76 4.81 4.83 4.01 3.39 2.69 2.12 2.25 2.32 2.35 2.46 2.60 2.62 2.64 2.70 2.70 2.87 2.81 3.23 3.78 4.17 4.77 5.18 5.26 4.80 4.32 3.92 3.76 3.66 3.57 3.46 3.33
6.67 6.51 6.45 6.16 5.98 5.73 5.39 5.12 5.00 4.93 4.81 4.80 4.67 4.83 4.28 3.56 2.95 2.38 2.04 1.98 2.16 2.37 2.37 2.48 2.40 2.41 2.53 2.81 2.85 2.88 3.04 3.13 3.70 4.38 4.73 4.86 4.70 4.24 3.95 3.86 3.81 3.77 3.73
5.98 5.89 5.92 5.81 5.66 5.35 5.11 4.74 4.64 4.62 4.79 4.59 4.54 4.31 4.02 3.68 3.45 2.94 2.42 2.18 2.19 2.18 2.20 2.22 2.24 2.33 2.44 2.65 2.79 2.77 2.72 2.61 2.80 3.26 3.67 3.89 4.06 4.08 3.98 3.89 3.91 4.02 3.97
5.20 4.96 5.03 4.99 4.82 4.62 4.47 4.40 4.47 4.37 4.28 4.08 3.99 4.03 4.11 4.01 3.57 3.21 2.83 2.55 2.44 2.26 2.25 2.26 2.39 2.43 2.42 2.53 2.61 2.55 2.61 2.48 2.37 2.62 2.91 3.13 3.37 3.67 3.97 4.01 3.98 4.07 4.06
4.71 4.30 4.19 4.13 3.95 3.80 3.81 3.85 3.95 3.87 3.88 3.89 3.82 3.69 3.73 3.74 3.49 3.39 3.06 2.75 2.68 2.46 2.34 2.25 2.22 2.34 2.43 2.48 2.42 2.62 2.34 2.15 2.03 2.10 2.35 2.60 2.89 3.17 3.45 3.74 3.99 4.14 4.24
4.06 3.74 3.57 3.54 3.42 3.35 3.36 3.53 3.63 3.51 3.45 3.51 3.46 3.38 3.34 3.29 3.29 3.29 3.38 3.10 2.74 2.40 2.32 2.20 2.10 2.19 2.20 2.38 2.47 2.46 2.07 1.93 1.89 1.94 2.09 2.19 2.39 2.65 2.93 3.20 3.44 3.63 3.65
3.39 3.24 3.14 3.07 2.98 2.85 2.79 3.06 3.15 3.16 3.18 3.22 3.14 3.30 3.28 3.16 3.17 3.14 3.23 3.38 3.19 2.77 2.55 2.34 2.17 2.20 2.28 2.38 2.54 2.48 2.19 2.19 2.00 1.99 2.03 1.97 1.98 2.11 2.27 2.52 2.68 2.82 2.93
2.83 2.70 2.65 2.64 2.59 2.55 2.58 2.81 2.87 2.81 2.91 2.89 2.90 3.05 3.04 2.99 3.06 3.04 3.14 3.38 3.59 3.33 2.91 2.56 2.40 2.25 2.38 2.50 2.66 2.28 2.33 2.50 2.28 2.10 2.04 1.93 1.83 1.74 1.79 1.97 2.01 2.04 2.14
2.59 2.55 2.46 2.42 2.44 2.39 2.36 2.50 2.59 2.66 2.71 2.67 2.78 3.00 3.00 2.89 3.08 3.17 3.27 3.33 3.42 3.49 3.18 2.61 2.48 2.30 2.35 2.35 2.74 2.31 2.36 2.55 2.32 2.04 1.88 1.73 1.59 1.51 1.55 1.68 1.69 1.74 1.80
2.80 2.64 2.51 2.56 2.51 2.41 2.35 2.37 2.26 2.36 2.48 2.57 2.61 2.72 2.81 2.90 3.09 3.11 3.15 3.20 3.32 3.39 3.26 2.69 2.50 2.48 2.49 2.50 2.59 2.44 2.36 2.34 2.17 2.02 1.78 1.62 1.54 1.47 1.45 1.52 1.51 1.49 1.56
2.51 2.48 2.45 2.48 2.43 2.33 2.33 2.23 2.09 2.18 2.34 2.43 2.48 2.56 2.58 2.67 2.85 2.77 2.85 2.89 2.99 3.15 3.13 2.97 2.84 2.69 2.63 2.58 2.50 2.36 2.11 1.87 1.83 1.90 1.71 1.60 1.57 1.51 1.47 1.49 1.46 1.44 1.44
2.40 2.42 2.43 2.42 2.41 2.37 2.35 2.30 2.26 2.22 2.16 2.15 2.24 2.28 2.32 2.45 2.42 2.35 2.38 2.36 2.47 2.59 2.88 2.87 2.70 2.79 2.66 2.61 2.74 2.43 2.20 2.18 1.68 1.69 1.60 1.53 1.51 1.45 1.39 1.36 1.32 1.29 1.28
2.26 2.34 2.29 2.24 2.24 2.15 2.05 2.10 2.15 2.11 2.01 1.95 1.93 1.93 1.92 1.92 1.92 1.97 1.97 2.05 2.21 2.55 2.80 2.76 2.53 2.45 2.47 2.46 2.73 2.59 2.46 2.35 2.03 1.57 1.54 1.43 1.38 1.36 1.33 1.25 1.18 1.12 1.11
2.01 2.12 2.09 2.03 1.98 1.86 1.72 1.79 1.87 1.86 1.92 1.89 1.83 1.78 1.70 1.72 1.77 1.72 1.58 1.78 2.09 2.43 2.57 2.62 2.50 2.34 2.25 2.35 2.40 2.29 2.28 2.32 2.21 1.84 1.76 1.50 1.37 1.34 1.36 1.32 1.25 1.12 1.01
2.02 2.01 1.98 1.87 1.74 1.51 1.52 1.56 1.56 1.65 1.77 1.85 1.81 1.68 1.58 1.58 1.55 1.49 1.45 1.54 1.73 1.96 2.18 2.34 2.32 2.25 2.19 2.23 2.34 2.31 2.34 2.42 2.31 2.01 1.99 1.84 1.59 1.66 1.59 1.41 1.32 1.18 1.08
2.05 1.93 1.84 1.74 1.62 1.52 1.46 1.38 1.40 1.51 1.65 1.74 1.77 1.78 1.53 1.33 1.48 1.44 1.47 1.50 1.49 1.55 1.73 2.01 2.15 2.08 2.13 2.24 2.49 2.40 2.45 2.49 2.35 2.13 2.24 2.17 1.96 1.90 1.61 1.44 1.46 1.24 1.12
2.03 1.89 1.76 1.68 1.62 1.47 1.40 1.33 1.35 1.38 1.56 1.60 1.62 1.66 1.71 1.65 1.54 1.57 1.55 1.52 1.46 1.48 1.55 1.63 1.84 1.92 1.90 2.07 2.35 2.34 2.39 2.43 2.34 2.18 2.26 2.30 2.03 1.95 1.62 1.69 1.66 1.35 1.16
1.95 1.84 1.76 1.75 1.71 1.51 1.40 1.30 1.38 1.45 1.55 1.54 1.46 1.46 1.44 1.45 1.48 1.56 1.63 1.70 1.68 1.61 1.42 1.45 1.51 1.63 1.75 1.87 2.02 2.13 2.31 2.54 2.48 2.27 2.20 2.30 2.15 2.05 1.86 1.86 1.72 1.52 1.33
1.90 1.81 1.75 1.75 1.68 1.60 1.42 1.27 1.37 1.41 1.46 1.49 1.53 1.49 1.40 1.29 1.28 1.27 1.33 1.62 1.79 1.68 1.56 1.55 1.63 1.75 1.85 1.96 1.97 2.03 2.24 2.45 2.47 2.47 2.19 2.26 2.23 2.24 2.18 1.87 1.74 1.66 1.56